Regional Weather Roundup
Issued by NWS Jackson, KY

Home | Current Version | Previous Version | Text Only | Print | Product List | Glossary On
Versions: 1 2 3 4 5 6 7 8 9 10 11 12 13 14 15 16 17 18 19 20 21 22 23 24 25 26 27 28 29 30 31 32 33 34 35 36 37 38 39 40 41 42 43 44 45 46 47 48 49 50
000
ASUS43 KJKL 280510
RWRJKL

EAST KENTUCKY HOURLY WEATHER ROUNDUP
NATIONAL WEATHER SERVICE JACKSON KY
100 AM EDT SAT MAY 28 2016

NOTE: "FAIR" INDICATES FEW OR NO CLOUDS BELOW 12,000 FEET WITH
NO SIGNIFICANT WEATHER AND/OR OBSTRUCTIONS TO VISIBILITY.

* THESE REPORTS ARE NOT UNDER NWS QUALITY CONTROL AND MAY NOT
  REPORT WEATHER SUCH AS PRECIPITATION AND FOG.

KYZ079-080-083-085-087-088-110-112-115-119-120-280600
...EASTERN KENTUCKY...

CITY           SKY/WX    TMP DP  RH WIND       PRES   REMARKS
JACKSON        CLOUDY    67  65  93 VRB3      30.09F
LONDON         PTCLDY    68  64  87 SE3       30.09R
SOMERSET*      PTCLDY    68  63  83 CALM      30.09R
MONTICELLO*    MOCLDY    69  65  86 W12       30.08S
WILLIAMSBURG*  PTCLDY    63  63 100 SE6       30.10R
MIDDLESBORO*   CLOUDY    64  64  99 CALM      30.12S
HARLAN APT*    CLOUDY    64  63  94 CALM      30.13S
HAZARD APT*    CLEAR     68  68 100 CALM      30.10S FOG
BLACK MTN*       N/A    N/A N/A N/A SE1         N/A
PIKE CO APT*     N/A     67  67  97 CALM      30.11S
BIG SANDY APT* CLOUDY    70  65  84 S3        30.10R
MOREHEAD APT*  CLOUDY    72  63  73 VRB5      30.08S
ASHLAND*       CLOUDY    70  66  88 CALM      30.04S
$$

KYZ035-036-041-042-044-050-067-078-099-280600
...CENTRAL KENTUCKY...

CITY           SKY/WX    TMP DP  RH WIND       PRES   REMARKS
MT STERLING*   CLOUDY    72  64  78 S7        30.07F
FLEMING/MASON* MOCLDY    72  64  75 S3        30.06S
DANVILLE*      CLEAR     68  63  83 SW3       30.07S
RICHMOND*      CLEAR     72  63  73 SE5       30.06S
LEXINGTON      PTCLDY    72  64  76 SE7       30.05S
FRANKFORT      CLEAR     73  64  73 S10       30.03R
LOUISVILLE     CLOUDY    74  64  71 S10       30.01R
LEBANON*         N/A     72  66  83 SW8       30.07R
GLASGOW*       LGT RAIN  68  68 100 SW7       30.05S
BOWLING GREEN  CLOUDY    72  65  78 S10G21    30.03R
$$

KYZ091>093-OHZ055-061-077-WVZ005-015-034-035-042-280600
...SOUTHERN OHIO/WEST VIRGINIA...

CITY           SKY/WX    TMP DP  RH WIND       PRES   REMARKS
COVINGTON      MOCLDY    72  65  78 S8        30.03R
COLUMBUS       CLOUDY    75  64  68 CALM      30.04R
DAYTON         PTCLDY    74  62  66 S6        30.04S
WILMINGTON     PTCLDY    68  63  84 S3        30.04S
HUNTINGTON       N/A     72  65  78 CALM      30.06S
CHARLESTON       N/A     69  63  81 CALM      30.08S
PINEVILLE*       N/A     64  60  90 MISG      30.20S FOG
BECKLEY          N/A     67  60  78 SE8       30.18S
BLUEFIELD        N/A     67  59  75 S3        30.21S
LOGAN CO APT*    N/A     70  64  83 CALM      30.11S
$$

VAZ002-007-008-TNZ017-027-036-066-071-280600
...SOUTHWEST VIRGINIA/EAST TENNESSEE...

CITY           SKY/WX    TMP DP  RH WIND       PRES   REMARKS
WISE*            N/A     68  55  64 S6        30.19S
JONESVILLE*      N/A     64  64 100 CALM      30.14
ABINGDON*        N/A     65  65  98 CALM      30.17S
BRISTOL        PTCLDY    63  62  97 CALM      30.14S FOG
SEVIERVILLE*   CLEAR     64  64 100 CALM      30.09S
KNOXVILLE      CLOUDY    67  66  97 CALM      30.09S FOG
OAK RIDGE      CLOUDY    68  66  93 CALM      30.10F
CROSSVILLE     CLEAR     71  60  68 SE6       30.11F
NASHVILLE      CLOUDY    75  62  64 SE6       30.00F
$$

...KEY TO REMARKS...
VSB - VISIBILITY IN MILES
WCI - WIND CHILL INDEX
HX  - HEAT INDEX

$$



USA.gov is the U.S. government's official web portal to all federal, state and local government web resources and services.